sat.trackr.live / text

‹ back to catalog

STARLINK-31314

NORAD 58967 · 2024-031C

PAYLOAD ACTIVE UNKNOWN

§ Identity

Operator
Country
US
Launch date
2024-02-15
Launch site
AFWTR
Launch vehicle
Mass (kg)
RCS (m²)

Purposes: comms

External: N2YO · Heavens-Above · Gunter

§ Orbital elements

Epoch: 2026-09-20T22:15:56.197728Z

Period
93.85 min
Inclination
53.1604°
Eccentricity
0.0001394
Mean motion
15.34388155 rev/d
Perigee alt
461.8 km
Apogee alt
463.7 km
Semi-major
6,840.9 km
B*
9.5004e-6
RAAN
107.8023°
Arg perigee
78.1777°
Mean anomaly
281.9382°
Rev number
14,645

§ Raw data

STARLINK-313141 58967U 24031C   26263.92773377 -.00000055  00000+0  95004-5 0  99922 58967  53.1604 107.8023 0001394  78.1777 281.9382 15.34388155146457

JSON: /api/v1/satellites/58967 · /tle

For live sub-satellite position, see the globe view (requires WebGL).

§ Visibility from observer

Set your observer location to see the next 7 days of passes ≥ 10°. The values pass through the URL so the page stays shareable.

No JS? Fill the form by hand. The geolocation button needs JavaScript.